Volver al catálogo

COSMOS 970 DEB

ActivoLEO
NORAD 65012·DEBRIS·🇷🇺 Russia

Lanzado Dec 21, 1977 desde Baikonur Cosmodrome

Loading…

Próximos Pases (próximas 24 horas)

TLE

EnvejeciendoSource: Space-Track

Época: Sep 11, 2026, 04:40 UTC

1 65012U 77121DZ  26254.19452941  .00000607  00000-0  46124-3 0  9999
2 65012  65.6292  65.6548 0138919 253.5569 105.0197 13.96673263651232

Sigue COSMOS 970 DEB en tiempo real con AllMySat

Download on the App Store